EW5800 Weather Reports


Display with metric or nautical units.
time (UTC)temp
F
wind
direction
speed
MPH
gust
MPH
rain 1hr
in
rain 24hr
in
rain mn
in
humidity
%
barometer
mb
20260506183123 59 200 0.0 0.0 0.00 0.00 0.00 78 1018.8
20260506181603 58 157 0.0 4.0 0.00 0.00 0.00 78 1018.8
20260506180115 58 101 0.0 4.0 0.00 0.00 0.00 81 1018.6
20260506174555 56 87 0.0 4.0 0.00 0.00 0.00 82 1018.7
20260506173121 57 148 0.0 5.0 0.00 0.00 0.00 83 1018.6
20260506171553 56 66 0.0 4.0 0.00 0.00 0.00 83 1018.6
20260506170051 56 67 0.0 5.0 0.00 0.00 0.00 82 1018.6
20260506164549 56 60 1.0 6.0 0.00 0.00 0.00 82 1018.4
20260506163053 57 59 0.0 2.0 0.00 0.00 0.00 82 1018.3
20260506161554 56 67 1.0 6.0 0.00 0.00 0.00 83 1018.2
20260506160045 56 44 1.0 5.0 0.00 0.00 0.00 84 1018.3
20260506154547 55 120 0.0 0.0 0.00 0.00 0.00 84 1018.3
20260506153044 55 96 0.0 1.0 0.00 0.00 0.00 85 1018.3
20260506151546 55 126 0.0 1.0 0.00 0.00 0.00 85 1018.2
20260506150043 55 173 0.0 4.0 0.00 0.00 0.00 86 1018.2
20260506144558 55 56 0.0 6.0 0.00 0.00 0.00 86 1017.9
20260506143037 54 52 0.0 4.0 0.00 0.00 0.00 86 1017.6
20260506141537 54 51 0.0 3.0 0.00 0.00 0.00 86 1017.4
20260506140034 54 68 0.0 4.0 0.00 0.00 0.00 87 1017.5
20260506134532 54 130 0.0 2.0 0.00 0.00 0.00 87 1017.2
20260506133037 54 165 0.0 4.0 0.00 0.00 0.00 87 1017.2
20260506131530 54 129 0.0 1.0 0.00 0.00 0.00 87 1017.0
20260506130028 54 63 0.0 3.0 0.00 0.00 0.00 87 1017.0
20260506124525 54 289 0.0 2.0 0.00 0.00 0.00 87 1016.8
20260506123023 54 142 0.0 1.0 0.00 0.00 0.00 87 1016.6
20260506121526 55 139 0.0 4.0 0.00 0.00 0.00 86 1016.6
20260506120027 55 138 0.0 6.0 0.00 0.00 0.00 85 1016.5
20260506114519 55 84 0.0 1.0 0.00 0.00 0.00 85 1016.6
20260506113018 55 196 0.0 0.0 0.00 0.00 0.00 86 1016.5
20260506111513 56 33 0.0 3.0 0.00 0.00 0.00 85 1016.2
20260506110014 56 70 0.0 4.0 0.00 0.00 0.00 85 1016.0
20260506104509 56 65 0.0 0.0 0.00 0.00 0.00 85 1015.9
20260506103006 56 64 0.0 1.0 0.00 0.00 0.00 85 1015.9
20260506101505 56 65 0.0 3.0 0.00 0.00 0.00 84 1015.8
20260506100003 56 75 0.0 7.0 0.00 0.00 0.00 84 1015.5
20260506094615 56 63 0.0 4.0 0.00 0.00 0.00 84 1015.3
20260506093059 56 58 0.0 4.0 0.00 0.00 0.00 84 1015.3
20260506091553 56 52 0.0 6.0 0.00 0.00 0.00 85 1015.2
20260506090049 56 41 0.0 3.0 0.00 0.00 0.00 85 1015.1
20260506084551 55 67 0.0 2.0 0.00 0.00 0.00 87 1015.0
20260506083055 55 53 0.0 1.0 0.00 0.00 0.00 87 1014.9
20260506081544 55 220 0.0 0.0 0.00 0.00 0.00 89 1015.0
20260506073042 55 225 0.0 0.0 0.00 0.00 0.00 89 1014.6
20260506071537 55 225 0.0 0.0 0.00 0.00 0.00 87 1014.4
20260506061532 56 91 0.0 0.0 0.00 0.00 0.00 85 1014.2
20260506044601 58 177 0.0 0.0 0.00 0.00 0.00 82 1013.6
20260506043101 58 178 0.0 0.0 0.00 0.00 0.00 82 1013.4
20260506041557 58 178 0.0 0.0 0.00 0.00 0.00 81 1013.4
20260506040054 58 178 0.0 0.0 0.00 0.00 0.00 80 1013.2
20260506040008 58 178 0.0 0.0 0.00 0.00 0.00 80 1013.2
20260506034557 59 177 0.0 0.0 0.00 0.00 0.00 78 1013.0
20260506033106 60 178 0.0 0.0 0.00 0.00 0.00 76 1012.9
20260506031553 60 176 0.0 0.0 0.00 0.00 0.00 75 1012.8
20260506030059 61 226 0.0 1.0 0.00 0.00 0.00 73 1012.7
20260506024605 62 162 0.0 0.0 0.00 0.00 0.00 72 1012.7
20260506023052 62 110 0.0 5.0 0.00 0.00 0.00 71 1012.7
20260506021557 62 146 0.0 1.0 0.00 0.00 0.00 71 1012.7
20260506020049 62 158 0.0 0.0 0.00 0.00 0.00 71 1012.7
20260506014549 63 129 0.0 4.0 0.00 0.00 0.00 70 1012.7
20260506013051 63 163 0.0 1.0 0.00 0.00 0.00 70 1012.8
20260506011624 64 101 0.0 1.0 0.00 0.00 0.00 70 1012.8
20260506010046 65 51 0.0 2.0 0.00 0.00 0.00 68 1012.9
20260506004547 66 178 0.0 4.0 0.00 0.00 0.00 67 1012.9
20260506003044 66 169 0.0 5.0 0.00 0.00 0.00 64 1012.8
20260506001545 68 170 0.0 2.0 0.00 0.00 0.00 62 1012.8
20260506000046 69 191 0.0 6.0 0.00 0.00 0.00 60 1012.9
20260505233000 70 131 0.0 2.0 0.00 0.00 0.00 60 1013.1
20260505231600 71 128 0.0 4.0 0.00 0.00 0.00 59 1013.2
20260505230013 72 203 0.0 3.0 0.00 0.00 0.00 57 1013.4
20260505224605 72 153 0.0 2.0 0.00 0.00 0.00 57 1013.5
20260505223100 72 171 0.0 2.0 0.00 0.00 0.00 58 1013.6
20260505221604 72 189 0.0 4.0 0.00 0.00 0.00 57 1013.6
20260505220104 73 133 0.0 4.0 0.00 0.00 0.00 55 1013.7
20260505214556 72 114 0.0 3.0 0.00 0.00 0.00 55 1013.9
20260505213052 71 73 1.0 5.0 0.00 0.00 0.00 58 1013.9
20260505211552 71 257 0.0 5.0 0.00 0.00 0.00 56 1013.9
20260505210058 71 195 0.0 5.0 0.00 0.00 0.00 58 1014.1
20260505204606 71 115 0.0 4.0 0.00 0.00 0.00 59 1014.2
20260505203106 70 200 0.0 3.0 0.00 0.00 0.00 60 1014.2
20260505201556 71 130 0.0 2.0 0.00 0.00 0.00 57 1014.3
20260505200054 71 169 0.0 4.0 0.00 0.00 0.00 58 1014.3
20260505194559 70 120 0.0 4.0 0.00 0.00 0.00 60 1014.4
20260505193051 70 148 0.0 5.0 0.00 0.00 0.00 61 1014.4
20260505191550 68 98 0.0 4.0 0.00 0.00 0.00 63 1014.4
20260505190049 68 126 0.0 3.0 0.00 0.00 0.00 64 1014.6
20260505184552 68 131 0.0 6.0 0.00 0.00 0.00 63 1014.5